FW4469 Weather Reports


Display with metric or nautical units.
time (UTC)temp
F
wind
direction
speed
MPH
gust
MPH
rain 1hr
in
rain 24hr
in
rain mn
in
humidity
%
barometer
mb
20260509051008 47 324 5.0 10.0 0.00 0.05 0.00 97 1018.8
20260509050003 47 323 5.0 10.0 0.00 0.05 0.00 97 1018.9
20260509045003 47 317 4.0 8.0 0.00 0.05 0.00 96 1019.0
20260509044008 47 309 4.0 8.0 0.00 0.05 0.00 96 1018.9
20260509043009 47 317 4.0 6.0 0.00 0.05 0.00 96 1018.8
20260509042004 47 313 3.0 6.0 0.00 0.05 0.00 95 1018.6
20260509041216 47 321 4.0 7.0 0.00 0.05 0.00 95 1018.8
20260509040003 47 328 6.0 9.0 0.00 0.05 0.00 95 1018.6
20260509035216 47 323 4.0 9.0 0.00 0.05 0.00 94 1018.6
20260509034008 48 324 4.0 6.0 0.00 0.05 0.00 94 1018.8
20260509033003 48 317 3.0 6.0 0.00 0.05 0.00 95 1018.8
20260509032008 48 321 3.0 7.0 0.00 0.05 0.00 95 1018.9
20260509031008 48 322 3.0 5.0 0.00 0.05 0.00 96 1018.9
20260509030003 48 318 3.0 6.0 0.00 0.05 0.00 96 1018.8
20260509025003 48 318 3.0 8.0 0.00 0.05 0.00 96 1018.5
20260509024008 48 330 4.0 9.0 0.00 0.05 0.00 97 1018.5
20260509023008 48 334 6.0 10.0 0.00 0.05 0.00 97 1018.6
20260509022003 48 322 3.0 7.0 0.00 0.05 0.00 97 1018.6
20260509021218 47 320 3.0 7.0 0.00 0.05 0.00 97 1018.6
20260509020003 47 329 4.0 7.0 0.00 0.05 0.00 97 1018.4
20260509015008 47 305 3.0 8.0 0.00 0.05 0.00 97 1018.6
20260509014003 47 331 5.0 10.0 0.00 0.05 0.00 97 1018.8
20260509013222 47 337 6.0 9.0 0.00 0.05 0.00 97 1018.6
20260509012003 47 325 4.0 8.0 0.00 0.05 0.00 97 1018.8
20260509011003 47 326 4.0 8.0 0.00 0.05 0.00 97 1018.6
20260509010003 47 320 4.0 9.0 0.00 0.05 0.00 97 1018.9
20260509005003 47 314 3.0 5.0 0.00 0.05 0.00 97 1018.8
20260509004217 47 318 3.0 5.0 0.00 0.05 0.00 97 1018.5
20260509003003 47 322 4.0 5.0 0.00 0.05 0.00 96 1018.8
20260509002008 47 322 4.0 5.0 0.00 0.05 0.00 96 1018.6
20260509001217 47 323 4.0 5.0 0.00 0.05 0.00 96 1018.6
20260509000003 47 322 4.0 5.0 0.00 0.05 0.00 96 1018.6
20260508235003 47 325 4.0 5.0 0.00 0.05 0.00 96 1018.6
20260508234003 47 319 4.0 5.0 0.00 0.05 0.00 96 1018.6
20260508233008 48 319 4.0 6.0 0.00 0.05 0.00 96 1018.9
20260508232217 48 320 4.0 5.0 0.00 0.05 0.00 96 1018.9
20260508231216 48 317 4.0 5.0 0.00 0.05 0.00 96 1018.8
20260508230003 48 314 4.0 6.0 0.00 0.05 0.00 96 1018.8
20260508225008 48 316 4.0 5.0 0.00 0.05 0.05 96 1018.8
20260508224003 49 314 4.0 5.0 0.00 0.05 0.05 96 1018.5
20260508223008 49 312 4.0 6.0 0.00 0.05 0.05 96 1018.4
20260508222008 49 314 4.0 6.0 0.00 0.04 0.04 96 1018.4
20260508221008 49 315 4.0 6.0 0.00 0.04 0.04 96 1018.6
20260508220008 49 315 4.0 7.0 0.00 0.04 0.04 96 1018.5
20260508215003 49 316 4.0 7.0 0.00 0.04 0.04 96 1018.3
20260508214008 49 315 4.0 7.0 0.00 0.04 0.04 96 1018.5
20260508213008 49 317 4.0 6.0 0.00 0.04 0.04 96 1018.4
20260508212003 49 314 4.0 6.0 0.00 0.04 0.04 95 1018.4
20260508211008 49 317 4.0 6.0 0.00 0.04 0.04 95 1018.4
20260508210003 49 314 4.0 7.0 0.00 0.04 0.04 95 1018.4
20260508205008 49 313 4.0 7.0 0.00 0.04 0.04 94 1018.2
20260508204003 49 312 4.0 7.0 0.00 0.04 0.04 93 1018.1
20260508203223 50 313 4.0 6.0 0.00 0.04 0.04 92 1018.1
20260508202008 50 317 4.0 6.0 0.00 0.04 0.04 92 1018.0
20260508201008 51 315 4.0 6.0 0.00 0.04 0.04 92 1018.0
20260508200217 51 312 4.0 5.0 0.00 0.04 0.04 91 1017.9
20260508195222 51 308 4.0 5.0 0.00 0.04 0.04 90 1017.6
20260508194008 51 311 4.0 5.0 0.00 0.04 0.04 87 1018.0
20260508193008 52 311 4.0 5.0 0.00 0.04 0.04 86 1017.7
20260508192217 53 308 4.0 5.0 0.00 0.04 0.04 84 1017.5
20260508191008 54 307 4.0 5.0 0.00 0.04 0.04 82 1017.4
20260508190008 55 306 4.0 6.0 0.00 0.04 0.04 79 1017.3
20260508185008 57 307 4.0 6.0 0.00 0.04 0.04 76 1017.2
20260508184217 57 305 4.0 6.0 0.00 0.04 0.04 75 1017.2
20260508183008 58 309 5.0 7.0 0.00 0.04 0.04 75 1017.0
20260508182003 59 303 5.0 8.0 0.00 0.04 0.04 71 1017.1
20260508181008 60 306 5.0 8.0 0.00 0.04 0.04 69 1017.0
20260508180223 61 306 5.0 9.0 0.00 0.04 0.04 71 1017.0
20260508175008 61 304 5.0 9.0 0.00 0.04 0.04 73 1016.9
20260508174003 60 305 5.0 10.0 0.00 0.04 0.04 74 1017.0
20260508173003 59 305 5.0 8.0 0.01 0.04 0.04 79 1017.0
20260508172008 58 307 5.0 9.0 0.02 0.06 0.04 83 1016.8
20260508171008 56 306 5.0 7.0 0.02 0.06 0.04 86 1016.7
20260508170003 55 309 4.0 6.0 0.02 0.06 0.04 89 1016.8
20260508165003 55 309 4.0 6.0 0.02 0.06 0.04 86 1016.7
20260508164008 55 313 5.0 6.0 0.01 0.06 0.04 84 1016.8
20260508163008 56 307 4.0 7.0 0.00 0.05 0.03 77 1016.9
20260508162003 57 307 4.0 6.0 0.00 0.05 0.02 78 1016.6
20260508161008 58 306 5.0 9.0 0.00 0.05 0.02 75 1016.5
20260508160008 59 307 5.0 8.0 0.02 0.05 0.02 80 1016.4
20260508155218 58 308 5.0 8.0 0.02 0.05 0.02 79 1016.4
20260508154218 56 312 5.0 7.0 0.02 0.05 0.02 86 1016.4
20260508153008 54 312 4.0 7.0 0.02 0.05 0.02 86 1016.8
20260508152003 54 313 4.0 8.0 0.02 0.05 0.02 84 1016.5
20260508151003 56 311 4.0 6.0 0.02 0.04 0.02 79 1016.6
20260508150008 57 310 4.0 6.0 0.00 0.02 0.00 72 1016.4
20260508145003 58 310 4.0 7.0 0.00 0.02 0.00 71 1016.4
20260508144003 58 302 4.0 8.0 0.00 0.02 0.00 67 1016.4
20260508143008 58 306 5.0 7.0 0.00 0.02 0.00 67 1016.3
20260508142221 58 307 5.0 7.0 0.00 0.02 0.00 69 1016.5
20260508141003 58 308 5.0 7.0 0.00 0.02 0.00 67 1016.4
20260508140008 59 308 5.0 8.0 0.00 0.02 0.00 62 1016.5
20260508135003 60 302 5.0 7.0 0.00 0.02 0.00 63 1016.4
20260508134003 61 304 5.0 9.0 0.00 0.02 0.00 62 1016.4
20260508133008 61 303 5.0 9.0 0.00 0.02 0.00 62 1016.4
20260508132008 60 302 5.0 10.0 0.00 0.02 0.00 60 1016.4
20260508131217 62 303 6.0 9.0 0.00 0.02 0.00 60 1016.3
20260508130223 61 303 5.0 11.0 0.00 0.02 0.00 64 1016.4
20260508125003 60 301 5.0 10.0 0.00 0.02 0.00 62 1016.5
20260508124008 59 300 5.0 9.0 0.00 0.02 0.00 65 1016.5
20260508123008 58 301 5.0 9.0 0.00 0.02 0.00 64 1016.4
20260508122008 59 304 5.0 10.0 0.00 0.02 0.00 64 1016.6
20260508121003 60 304 5.0 9.0 0.00 0.02 0.00 60 1016.6
20260508120216 60 301 5.0 9.0 0.00 0.02 0.00 63 1016.6
20260508115008 58 298 4.0 8.0 0.00 0.02 0.00 64 1016.7
20260508114003 57 306 5.0 9.0 0.00 0.02 0.00 66 1016.8
20260508113218 57 308 5.0 8.0 0.00 0.02 0.00 68 1016.9
20260508112218 58 304 5.0 8.0 0.00 0.02 0.00 65 1016.7
20260508111003 58 305 5.0 9.0 0.00 0.02 0.00 69 1016.8
20260508110008 58 302 5.0 9.0 0.00 0.02 0.00 66 1016.7
20260508105008 57 302 5.0 9.0 0.00 0.02 0.00 71 1016.6
20260508104008 56 305 5.0 9.0 0.00 0.02 0.00 74 1016.8
20260508103008 56 307 5.0 9.0 0.00 0.02 0.00 71 1016.5
20260508102008 55 303 5.0 9.0 0.00 0.02 0.00 72 1016.5
20260508101218 54 307 5.0 7.0 0.00 0.02 0.00 72 1016.7
20260508100222 54 304 4.0 6.0 0.00 0.02 0.00 72 1016.8
20260508095003 56 309 4.0 9.0 0.00 0.02 0.00 70 1016.9
20260508094003 54 308 5.0 8.0 0.00 0.02 0.00 70 1016.7
20260508093003 54 310 4.0 8.0 0.00 0.02 0.00 68 1016.8
20260508092217 55 309 4.0 8.0 0.00 0.02 0.00 69 1016.7
20260508091217 54 305 4.0 6.0 0.00 0.02 0.00 69 1016.5
20260508090008 52 305 5.0 8.0 0.00 0.02 0.00 77 1016.5
20260508085217 52 302 4.0 8.0 0.00 0.02 0.00 76 1016.6
20260508084008 52 309 4.0 6.0 0.00 0.02 0.00 75 1016.6
20260508083003 51 312 4.0 10.0 0.00 0.02 0.00 80 1016.6
20260508082003 50 311 5.0 8.0 0.00 0.02 0.00 81 1016.6
20260508081223 51 309 4.0 7.0 0.00 0.02 0.00 80 1016.7
20260508080003 50 309 4.0 7.0 0.00 0.02 0.00 81 1016.7
20260508075008 49 312 4.0 11.0 0.00 0.02 0.00 83 1016.5
20260508074217 48 315 5.0 9.0 0.00 0.02 0.00 84 1016.6
20260508073223 47 305 4.0 8.0 0.00 0.02 0.00 86 1016.5
20260508072008 47 304 4.0 8.0 0.00 0.02 0.00 87 1016.4
20260508071003 47 316 5.0 7.0 0.00 0.02 0.00 87 1016.5
20260508070003 47 315 4.0 8.0 0.00 0.02 0.00 86 1016.4
20260508065003 47 320 3.0 7.0 0.00 0.02 0.00 86 1016.4
20260508064216 47 320 4.0 9.0 0.00 0.02 0.00 85 1016.4
20260508063008 47 318 4.0 7.0 0.00 0.02 0.00 87 1016.1
20260508062003 46 312 4.0 7.0 0.00 0.02 0.00 89 1016.0
20260508061003 46 315 4.0 7.0 0.00 0.02 0.00 90 1016.0
20260508060008 45 329 4.0 8.0 0.00 0.02 0.00 90 1016.0
20260508055008 45 331 3.0 7.0 0.00 0.02 0.00 89 1016.0
20260508054003 44 309 3.0 7.0 0.00 0.02 0.00 90 1015.8
20260508053008 44 307 2.0 4.0 0.00 0.02 0.00 90 1015.9
20260508052218 44 309 3.0 5.0 0.00 0.02 0.00 90 1016.0